TimeCDT,TemperatureF,Dew PointF,Humidity,Sea Level PressureIn,VisibilityMPH,Wind Direction,Wind SpeedMPH,Gust SpeedMPH,PrecipitationIn,Events,Conditions,WindDirDegrees,DateUTC
12:13 AM,33.8,14.0,44,30.00,10.0,ESE,13.8,-,N/A,,Overcast,110,2014-04-16 05:13:00
12:33 AM,33.8,15.8,48,30.00,10.0,East,13.8,-,N/A,,Overcast,100,2014-04-16 05:33:00
12:52 AM,33.8,15.8,48,29.99,10.0,East,16.1,23.0,N/A,,Overcast,100,2014-04-16 05:52:00
1:13 AM,33.8,17.6,52,29.99,10.0,East,18.4,-,N/A,,Overcast,100,2014-04-16 06:13:00
1:33 AM,33.8,19.4,56,29.98,10.0,East,16.1,25.3,N/A,,Overcast,100,2014-04-16 06:33:00
1:52 AM,33.8,21.2,60,29.97,10.0,East,18.4,21.9,N/A,,Overcast,90,2014-04-16 06:52:00
2:13 AM,33.8,21.2,60,29.97,10.0,East,20.7,-,N/A,,Mostly Cloudy,100,2014-04-16 07:13:00
2:32 AM,33.8,21.2,60,29.96,10.0,East,15.0,25.3,N/A,,Mostly Cloudy,90,2014-04-16 07:32:00
2:53 AM,33.8,21.2,60,29.95,10.0,East,13.8,23.0,N/A,,Mostly Cloudy,80,2014-04-16 07:53:00
3:13 AM,32.0,21.2,64,29.95,10.0,East,16.1,21.9,N/A,,Scattered Clouds,80,2014-04-16 08:13:00
3:32 AM,32.0,21.2,64,29.94,10.0,East,16.1,19.6,N/A,,Scattered Clouds,90,2014-04-16 08:32:00
3:53 AM,32.0,21.2,64,29.93,10.0,East,18.4,21.9,N/A,,Mostly Cloudy,90,2014-04-16 08:53:00
4:13 AM,30.2,24.8,80,29.92,10.0,East,18.4,21.9,N/A,,Scattered Clouds,80,2014-04-16 09:13:00
4:32 AM,30.2,24.8,80,29.92,10.0,East,13.8,-,N/A,,Scattered Clouds,90,2014-04-16 09:32:00
4:53 AM,30.2,24.8,80,29.91,10.0,East,16.1,25.3,N/A,,Mostly Cloudy,90,2014-04-16 09:53:00
5:13 AM,30.2,24.8,80,29.90,10.0,East,15.0,-,N/A,,Scattered Clouds,90,2014-04-16 10:13:00
5:32 AM,30.2,23.0,75,29.90,10.0,East,16.1,20.7,N/A,,Clear,90,2014-04-16 10:32:00
5:53 AM,30.2,23.0,75,29.90,10.0,East,17.3,20.7,N/A,,Clear,80,2014-04-16 10:53:00
6:12 AM,30.2,23.0,75,29.90,10.0,East,12.7,-,N/A,,Clear,80,2014-04-16 11:12:00
6:33 AM,30.2,24.8,80,29.90,10.0,East,13.8,-,N/A,,Scattered Clouds,80,2014-04-16 11:33:00
6:53 AM,30.2,24.8,80,29.90,10.0,East,13.8,-,N/A,,Scattered Clouds,80,2014-04-16 11:53:00
7:12 AM,30.2,24.8,80,29.90,10.0,East,11.5,-,N/A,,Scattered Clouds,80,2014-04-16 12:12:00
7:33 AM,32.0,21.2,64,29.90,10.0,East,16.1,-,N/A,,Scattered Clouds,90,2014-04-16 12:33:00
7:53 AM,33.8,21.2,60,29.90,10.0,East,13.8,-,N/A,,Scattered Clouds,90,2014-04-16 12:53:00
8:12 AM,33.8,21.2,60,29.90,7.0,East,16.1,19.6,N/A,,Mostly Cloudy,90,2014-04-16 13:12:00
8:53 AM,30.2,30.2,100,29.90,0.5,East,16.1,21.9,N/A,Snow,Light Snow,80,2014-04-16 13:53:00
9:12 AM,30.2,28.4,93,29.89,0.5,East,13.8,24.2,N/A,Snow,Light Snow,90,2014-04-16 14:12:00
9:33 AM,30.2,30.2,100,29.89,0.2,East,15.0,23.0,N/A,Snow,Snow,100,2014-04-16 14:33:00
9:53 AM,30.2,30.2,100,29.87,0.2,East,18.4,24.2,N/A,Snow,Snow,90,2014-04-16 14:53:00
10:13 AM,30.2,30.2,100,29.87,0.5,East,15.0,23.0,N/A,Snow,Light Snow,90,2014-04-16 15:13:00
10:52 AM,30.2,30.2,100,29.88,0.2,East,12.7,18.4,N/A,Snow,Snow,90,2014-04-16 15:52:00
11:13 AM,30.2,30.2,100,29.88,0.5,East,11.5,-,N/A,Snow,Snow,80,2014-04-16 16:13:00
11:33 AM,30.2,30.2,100,29.87,0.5,ENE,11.5,-,N/A,Snow,Light Snow,70,2014-04-16 16:33:00
11:52 AM,30.2,30.2,100,29.88,0.2,East,12.7,17.3,0.01,Snow,Snow,80,2014-04-16 16:52:00
12:13 PM,30.2,30.2,100,29.86,0.2,ENE,12.7,-,0.02,Snow,Snow,70,2014-04-16 17:13:00
12:33 PM,30.2,30.2,100,29.87,0.2,ENE,11.5,-,0.03,Snow,Snow,70,2014-04-16 17:33:00
12:52 PM,30.2,30.2,100,29.88,0.2,ENE,10.4,-,N/A,Snow,Heavy Snow,70,2014-04-16 17:52:00
1:13 PM,30.2,30.2,100,29.88,0.2,ENE,9.2,-,0.02,Snow,Snow,60,2014-04-16 18:13:00
1:33 PM,30.2,30.2,100,29.88,0.2,ENE,10.4,-,0.04,Snow,Snow,60,2014-04-16 18:33:00
1:52 PM,30.2,30.2,100,29.88,0.2,ENE,15.0,-,N/A,Snow,Snow,60,2014-04-16 18:52:00
2:13 PM,30.2,30.2,100,29.88,0.2,NE,13.8,20.7,0.02,Snow,Snow,50,2014-04-16 19:13:00
2:33 PM,30.2,30.2,100,29.89,0.2,NE,12.7,17.3,0.03,Snow,Snow,50,2014-04-16 19:33:00
2:53 PM,30.2,30.2,100,29.89,0.5,NE,13.8,-,0.01,Snow,Light Snow,50,2014-04-16 19:53:00
3:13 PM,30.2,30.2,100,29.89,0.2,NE,16.1,24.2,0.02,Snow,Snow,50,2014-04-16 20:13:00
3:33 PM,30.2,30.2,100,29.89,0.2,NE,13.8,-,0.03,Snow,Snow,40,2014-04-16 20:33:00
3:52 PM,30.2,30.2,100,29.90,0.5,NE,13.8,20.7,N/A,Snow,Light Snow,40,2014-04-16 20:52:00
4:13 PM,30.2,30.2,100,29.90,0.5,NE,15.0,18.4,0.01,Snow,Light Snow,40,2014-04-16 21:13:00
4:53 PM,30.2,30.2,100,29.91,0.2,NE,15.0,20.7,N/A,Snow,Snow,40,2014-04-16 21:53:00
5:13 PM,30.2,30.2,100,29.90,0.2,NE,16.1,21.9,N/A,Snow,Snow,40,2014-04-16 22:13:00
5:33 PM,30.2,30.2,100,29.92,0.5,NNE,15.0,21.9,N/A,Snow,Snow,20,2014-04-16 22:33:00
5:53 PM,30.2,30.2,100,29.92,0.5,NNE,17.3,24.2,N/A,Snow,Light Snow,30,2014-04-16 22:53:00
6:13 PM,30.2,30.2,100,29.93,0.5,NNE,17.3,21.9,N/A,Snow,Light Snow,20,2014-04-16 23:13:00
6:33 PM,30.2,30.2,100,29.94,0.5,NNE,17.3,21.9,N/A,Snow,Light Snow,20,2014-04-16 23:33:00
6:53 PM,30.2,30.2,100,29.94,0.8,NE,18.4,-,N/A,Snow,Light Snow,40,2014-04-16 23:53:00
7:13 PM,30.2,30.2,100,29.95,1.0,NNE,17.3,23.0,N/A,Snow,Light Snow,20,2014-04-17 00:13:00
7:32 PM,30.2,30.2,100,29.96,1.0,NNE,16.1,23.0,N/A,Snow,Light Snow,20,2014-04-17 00:32:00
7:53 PM,30.2,30.2,100,29.98,1.8,North,16.1,20.7,N/A,Snow,Light Snow,360,2014-04-17 00:53:00
8:13 PM,30.2,28.4,93,29.97,2.5,North,16.1,25.3,N/A,Snow,Light Snow,10,2014-04-17 01:13:00
8:32 PM,30.2,28.4,93,29.97,5.0,NNE,20.7,27.6,N/A,,Overcast,20,2014-04-17 01:32:00
8:53 PM,30.2,28.4,93,29.99,10.0,North,19.6,27.6,N/A,,Overcast,10,2014-04-17 01:53:00
9:13 PM,28.4,28.4,100,30.00,10.0,North,15.0,-,N/A,,Overcast,10,2014-04-17 02:13:00
9:32 PM,28.4,28.4,100,30.01,10.0,North,20.7,26.5,N/A,,Overcast,10,2014-04-17 02:32:00
9:53 PM,28.4,26.6,93,30.02,10.0,North,16.1,27.6,N/A,,Overcast,10,2014-04-17 02:53:00
10:13 PM,28.4,26.6,93,30.02,10.0,North,18.4,26.5,N/A,,Overcast,10,2014-04-17 03:13:00
10:32 PM,28.4,26.6,93,30.03,10.0,North,18.4,25.3,N/A,,Overcast,10,2014-04-17 03:32:00
10:53 PM,28.4,26.6,93,30.04,10.0,North,17.3,25.3,N/A,,Overcast,10,2014-04-17 03:53:00
11:13 PM,28.4,26.6,93,30.04,10.0,North,18.4,25.3,N/A,,Overcast,360,2014-04-17 04:13:00
11:32 PM,28.4,26.6,93,30.04,10.0,North,16.1,21.9,N/A,,Overcast,10,2014-04-17 04:32:00
11:53 PM,28.4,26.6,93,30.05,10.0,North,13.8,20.7,N/A,,Overcast,10,2014-04-17 04:53:00